This is the latest recevied weather packets stored in our database for station/object SV9TNF-1. If no packets are shown the sender has not sent any weather packets the latest 10 day(s).
| Time | Temp. | Humidity | Pressure | Rain* | Wind** | Luminosity | Snow |
|---|---|---|---|---|---|---|---|
| 1777480770 | 20.56° C | 46% | 1003.4 hPa | 0 mm | 2.68 m/s, 119° | - | - |
| 1777480470 | 20.56° C | 44% | 1003.4 hPa | 0 mm | 1.79 m/s, 112° | - | - |
| 1777480169 | 20.56° C | 43% | 1003.4 hPa | 0 mm | 3.58 m/s, 110° | - | - |
| 1777479869 | 20.56° C | 44% | 1003.4 hPa | 0 mm | 2.68 m/s, 134° | - | - |
| 1777479569 | 20.56° C | 44% | 1003.4 hPa | 0 mm | 2.24 m/s, 112° | - | - |
| 1777479269 | 21.11° C | 43% | 1003.4 hPa | 0 mm | 4.02 m/s, 113° | - | - |
| 1777478969 | 21.11° C | 41% | 1003.4 hPa | 0 mm | 3.13 m/s, 119° | - | - |
| 1777478669 | 21.11° C | 43% | 1003.4 hPa | 0 mm | 3.58 m/s, 124° | - | - |
| 1777478369 | 21.67° C | 45% | 1003.7 hPa | 0 mm | 4.47 m/s, 128° | - | - |
| 1777478069 | 21.67° C | 44% | 1003.7 hPa | 0 mm | 0.89 m/s, 121° | - | - |
| 1777477769 | 21.67° C | 39% | 1003.7 hPa | 0 mm | 4.02 m/s, 132° | - | - |
| 1777477469 | 22.22° C | 38% | 1003.7 hPa | 0 mm | 5.36 m/s, 128° | - | - |
| 1777477168 | 22.78° C | 41% | 1003.7 hPa | 0 mm | 1.79 m/s, 136° | - | - |
| 1777476869 | 22.22° C | 41% | 1003.7 hPa | 0 mm | 4.47 m/s, 128° | - | - |
| 1777476568 | 22.78° C | 38% | 1003.7 hPa | 0 mm | 1.79 m/s, 127° | - | - |
| 1777476268 | 23.33° C | 40% | 1003.7 hPa | 0 mm | 1.79 m/s, 79° | - | - |
| 1777475968 | 22.78° C | 40% | 1003.7 hPa | 0 mm | 4.47 m/s, 148° | - | - |
| 1777475668 | 22.78° C | 41% | 1003.7 hPa | 0 mm | 5.81 m/s, 129° | - | - |
| 1777475368 | 22.78° C | 42% | 1003.7 hPa | 0 mm | 4.47 m/s, 113° | - | - |
| 1777475068 | 22.78° C | 43% | 1003.7 hPa | 0 mm | 3.58 m/s, 155° | - | - |
| 1777474768 | 23.33° C | 41% | 1003.7 hPa | 0 mm | 4.92 m/s, 92° | - | - |
| 1777474467 | 23.89° C | 39% | 1003.7 hPa | 0 mm | 4.92 m/s, 116° | - | - |
| 1777474168 | 23.89° C | 40% | 1003.7 hPa | 0 mm | 4.02 m/s, 121° | - | - |
| 1777473867 | 24.44° C | 39% | 1004.1 hPa | 0 mm | 4.92 m/s, 127° | - | - |
| 1777473567 | 25.56° C | 38% | 1004.1 hPa | 0 mm | 1.34 m/s, 110° | - | - |
* Rain latest hour (hover to see other rain measurements)
** Current wind speed in m/s (hover to see current wind gust speed)